Temp
69 73 74 75 75 74 74 73 73 72 71 69 69 69 70 71 71 73 74 66 67 70 72 72 71 70 69 68 67 66 65 65 65 65 65 65 64 64 64 63 63 63 63
68 69 73 73 74 71 73 73 73 72 72 70 69 68 70 71 71 71 73 73 65 67 69 71 71 70 69 68 66 66 66 66 65 65 65 63 63 63 63 63 62 62 62
70 71 69 68 73 75 72 71 70 70 70 69 68 69 69 69 70 70 71 73 72 64 66 68 69 69 69 68 67 66 66 66 65 65 63 63 63 62 62 62 62 62 62
69 68 72 70 71 71 71 70 68 66 65 66 67 69 69 69 68 69 70 71 73 73 66 65 67 68 68 67 67 67 66 64 65 63 63 62 62 61 61 61 61 61 61
68 67 67 70 69 65 63 64 62 62 60 60 61 64 66 68 69 69 69 69 70 71 72 66 64 65 66 67 67 67 66 65 64 63 63 62 61 61 60 60 60 60 60
67 67 67 68 66 65 62 62 62 62 62 63 63 59 62 62 64 65 68 69 69 67 68 70 68 66 63 65 66 66 66 65 64 64 63 62 61 61 60 60 60 60 60
68 68 66 68 68 64 64 64 61 60 59 58 56 53 55 55 59 57 66 64 66 67 66 69 67 67 65 63 65 66 66 66 65 64 63 62 61 60 60 59 59 59 59
68 68 68 68 68 67 67 67 66 61 61 56 53 51 48 50 51 55 56 56 58 64 60 61 64 64 66 66 66 64 65 65 65 64 63 62 60 60 59 59 59 58 58
65 65 66 65 65 65 64 64 65 64 61 62 57 54 47 46 49 52 52 54 54 55 57 58 59 62 63 64 64 62 61 61 64 64 63 61 60 60 59 59 58 58 58
63 64 63 63 62 62 62 63 64 64 63 59 59 58 57 53 49 45 50 51 53 53 55 55 57 58 58 57 60 60 57 57 60 62 62 61 60 60 59 59 58 58 58
61 61 60 60 59 59 60 60 60 61 62 61 60 60 55 55 51 48 48 48 51 53 53 53 53 54 55 54 54 54 54 54 57 60 60 60 60 59 59 58 58 58 58
58 59 59 58 58 58 58 58 59 59 60 61 61 60 59 54 52 49 47 49 48 51 52 52 52 52 52 52 54 53 53 52 54 57 58 59 58 59 58 58 58 58 57
57 57 57 56 57 57 56 57 56 57 58 58 59 59 60 60 60 58 51 50 49 49 48 49 49 50 51 51 51 53 52 51 52 55 56 57 57 57 57 57 57 57 57
57 57 55 55 54 55 55 55 55 56 57 56 57 56 55 58 60 58 56 53 47 49 42 43 48 48 47 48 50 51 51 50 50 52 54 55 54 55 55 55 56 55 55
55 54 54 52 52 51 50 52 54 54 53 54 54 54 56 57 57 58 57 56 50 44 41 42 41 46 46 47 48 49 49 49 49 49 50 51 52 53 53 53 53 53 53
52 51 50 50 51 52 52 52 50 50 49 49 50 51 53 55 54 54 54 56 55 50 45 51 44 44 44 45 48 47 47 48 47 47 48 49 49 50 51 51 50 50 50
49 48 46 46 47 48 51 50 49 48 47 47 47 47 49 52 51 51 51 54 54 54 49 44 51 47 44 43 45 46 47 47 46 46 46 46 46 46 47 47 47 47 47
45 45 45 45 46 45 46 46 45 46 45 44 45 46 46 48 47 47 48 49 52 52 50 44 44 42 42 44 44 43 44 45 44 45 44 44 44 44 44 44 44 44 44
46 45 45 44 43 42 42 43 43 43 43 42 42 42 42 43 42 43 43 45 48 51 51 47 38 41 42 42 40 41 41 41 42 44 43 42 42 42 42 42 42 42 41
41 41 41 41 40 41 41 41 41 40 40 40 40 40 41 41 41 41 42 42 44 45 52 46 40 38 38 37 38 34 33 37 38 40 41 40 40 41 40 40 40 40 39
40 40 39 39 39 38 38 38 38 37 36 37 37 38 39 40 40 40 41 42 42 43 45 40 36 35 35 33 33 34 33 33 34 36 35 35 37 37 39 39 39 39 39
38 36 36 36 36 36 36 36 37 36 36 35 35 37 38 40 40 40 40 40 42 42 45 40 36 35 33 34 35 34 33 31 30 35 34 32 36 36 36 38 39 38 38
35 34 35 35 34 35 35 36 36 36 35 35 35 35 36 39 39 41 41 39 40 41 41 46 38 37 34 35 35 33 33 35 34 33 34 29 33 32 34 37 37 37 37
32 33 33 33 33 33 36 35 35 34 34 34 34 34 35 37 40 39 41 41 40 41 41 45 42 40 40 39 37 37 35 33 33 33 34 28 31 30 33 35 36 36 36
33 32 33 33 32 33 35 35 35 34 33 33 33 34 35 35 37 40 37 36 38 37 40 41 42 40 40 38 36 33 31 31 29 30 32 31 30 28 30 31 35 36 36
32 34 33 33 33 32 34 35 35 35 33 33 33 34 35 35 36 37 36 35 33 33 33 32 32 33 33 33 34 37 35 31 30 28 31 30 27 28 26 31 33 35 35
MSLP
1016.93 1016.98 1017.11 1017.34 1017.56 1017.92 1018.10 1018.26 1018.41 1018.50 1018.62 1018.82 1018.83 1018.88 1018.89 1018.92 1019.09 1019.20 1019.33 1019.68 1019.72 1019.74 1020.04 1020.46 1020.65 1020.87 1021.19 1021.39 1021.58 1021.93 1022.23 1022.27 1022.19 1022.23 1022.49 1022.78 1022.98 1023.33 1023.45 1023.39 1023.60 1023.41 1023.40
1016.87 1017.09 1016.97 1017.15 1017.23 1017.55 1017.56 1017.72 1017.82 1017.99 1018.10 1018.31 1018.58 1018.80 1018.64 1018.59 1018.65 1018.68 1018.72 1018.94 1019.62 1019.82 1019.74 1019.84 1020.28 1020.47 1020.80 1021.27 1021.59 1021.96 1022.28 1022.22 1022.19 1022.19 1022.34 1022.86 1023.13 1023.34 1023.58 1023.61 1023.72 1023.68 1023.62
1016.55 1016.65 1016.85 1016.97 1016.82 1016.92 1017.32 1017.55 1017.69 1017.88 1017.88 1017.95 1017.98 1018.05 1018.18 1018.27 1018.23 1018.33 1018.43 1018.43 1018.61 1019.10 1019.47 1019.77 1019.69 1020.11 1020.41 1020.72 1020.98 1021.27 1021.47 1022.19 1022.28 1022.23 1022.30 1022.50 1023.01 1023.39 1023.62 1024.00 1023.89 1023.88 1023.91
1016.24 1016.50 1016.40 1016.61 1016.64 1016.82 1017.00 1017.07 1017.34 1017.50 1017.55 1017.47 1017.31 1017.32 1017.43 1017.42 1017.50 1017.67 1017.84 1018.00 1018.06 1018.16 1018.54 1018.84 1019.50 1019.81 1019.85 1020.53 1020.81 1020.87 1020.98 1021.49 1022.30 1022.54 1022.50 1022.58 1022.73 1023.37 1023.60 1023.86 1024.25 1024.15 1024.29
1016.05 1016.18 1016.28 1016.21 1016.37 1016.65 1016.81 1016.83 1016.91 1017.10 1017.09 1017.12 1017.14 1017.00 1016.83 1016.74 1016.73 1016.89 1016.88 1017.34 1017.28 1017.33 1017.59 1018.07 1018.15 1019.00 1019.91 1020.00 1020.91 1020.90 1020.98 1020.92 1021.27 1022.02 1022.44 1022.50 1022.73 1023.03 1023.72 1023.50 1024.17 1024.40 1024.27
1015.75 1015.95 1016.05 1016.09 1016.34 1016.54 1016.54 1016.60 1016.58 1016.51 1016.49 1016.37 1016.27 1016.32 1016.31 1016.34 1016.50 1016.35 1016.36 1016.32 1016.65 1017.12 1016.88 1016.96 1017.87 1018.13 1018.51 1019.12 1019.71 1020.52 1020.45 1020.77 1020.52 1021.43 1021.67 1022.02 1022.40 1022.94 1023.33 1023.82 1023.73 1024.43 1024.54
1015.64 1015.83 1015.98 1015.94 1015.97 1016.35 1016.34 1016.38 1016.24 1016.19 1016.25 1016.43 1016.52 1016.58 1016.36 1016.20 1015.90 1016.45 1015.70 1016.56 1015.89 1016.08 1016.77 1016.80 1017.34 1017.50 1018.22 1018.13 1018.19 1019.74 1020.24 1020.61 1020.67 1020.39 1020.93 1021.39 1021.72 1022.54 1023.14 1023.65 1023.92 1024.22 1024.61
1015.90 1015.96 1015.97 1016.07 1016.21 1016.26 1016.19 1016.06 1015.92 1016.02 1015.95 1016.25 1016.42 1016.59 1016.38 1016.09 1016.09 1015.72 1015.33 1015.69 1015.60 1015.49 1015.94 1016.13 1016.13 1017.11 1017.44 1017.91 1017.54 1018.29 1019.31 1019.79 1020.27 1020.43 1020.90 1020.61 1021.04 1021.73 1022.72 1023.43 1023.87 1024.17 1024.62
1016.15 1016.26 1016.24 1016.25 1016.26 1016.20 1016.01 1015.84 1015.67 1015.38 1015.11 1015.24 1015.57 1015.93 1015.96 1015.25 1015.08 1014.76 1014.84 1015.22 1015.37 1015.35 1015.75 1015.80 1015.83 1015.57 1016.75 1017.14 1017.51 1018.11 1019.32 1018.43 1019.59 1020.23 1020.89 1020.26 1021.18 1020.69 1022.10 1022.67 1023.85 1024.09 1024.46
1016.25 1016.21 1016.17 1016.05 1015.94 1015.81 1015.61 1015.38 1015.17 1014.86 1014.66 1014.26 1014.58 1014.61 1014.30 1014.30 1014.32 1014.22 1014.31 1013.72 1014.10 1013.99 1014.55 1014.66 1015.39 1015.24 1015.88 1016.31 1016.66 1017.52 1019.14 1019.41 1018.40 1019.90 1020.95 1020.48 1020.63 1020.73 1021.37 1021.59 1023.35 1023.89 1024.40
1016.22 1016.09 1015.99 1015.80 1015.61 1015.43 1015.15 1014.96 1014.59 1014.16 1013.77 1013.39 1013.28 1013.33 1013.66 1013.47 1013.75 1013.74 1012.89 1013.26 1012.95 1012.82 1012.94 1012.92 1013.34 1014.23 1014.82 1015.03 1015.73 1016.79 1017.84 1019.58 1018.84 1019.51 1020.41 1021.33 1020.51 1020.58 1020.71 1021.47 1022.76 1023.37 1023.98
1016.18 1015.86 1015.74 1015.60 1015.38 1015.03 1014.69 1014.29 1013.94 1013.61 1013.25 1012.78 1012.46 1012.37 1012.32 1012.32 1012.40 1013.01 1012.97 1012.63 1012.80 1012.41 1012.53 1012.89 1012.67 1012.66 1013.22 1013.82 1014.37 1015.28 1016.22 1017.36 1018.60 1019.44 1020.33 1021.18 1021.06 1021.04 1021.20 1021.08 1022.05 1023.07 1023.29
1015.84 1015.55 1015.41 1015.16 1014.84 1014.56 1014.30 1013.92 1013.56 1013.22 1012.73 1012.25 1011.61 1011.22 1011.07 1011.02 1011.25 1011.32 1011.60 1011.30 1011.53 1011.99 1012.35 1011.75 1012.17 1012.30 1012.94 1012.64 1013.30 1014.19 1015.50 1016.65 1016.29 1018.95 1019.85 1020.80 1020.65 1021.38 1021.79 1021.21 1021.90 1023.23 1023.05
1015.35 1015.20 1014.96 1014.77 1014.51 1014.21 1013.80 1013.45 1013.01 1012.34 1011.81 1011.43 1010.72 1010.52 1010.48 1010.34 1010.33 1010.35 1010.32 1010.64 1010.56 1011.06 1011.72 1012.33 1012.52 1011.98 1012.45 1012.81 1012.43 1013.28 1014.25 1015.51 1016.19 1017.79 1019.25 1020.00 1020.20 1021.28 1021.79 1021.94 1022.07 1023.13 1023.36
1015.03 1014.76 1014.76 1014.68 1014.31 1013.84 1013.43 1012.80 1012.07 1011.47 1011.22 1010.59 1010.38 1010.16 1009.86 1009.38 1009.29 1009.25 1009.20 1009.29 1009.43 1009.69 1010.03 1010.96 1011.65 1012.07 1012.23 1012.52 1012.51 1012.83 1013.66 1015.27 1015.99 1017.36 1018.99 1019.21 1019.70 1020.69 1022.08 1022.18 1022.46 1023.03 1023.44
1014.81 1014.52 1014.17 1013.82 1013.32 1012.76 1012.30 1011.76 1011.26 1010.89 1010.74 1010.45 1010.00 1009.49 1009.03 1008.81 1008.48 1008.26 1008.21 1008.18 1008.22 1008.09 1008.37 1008.75 1009.91 1010.45 1011.40 1012.35 1012.65 1012.47 1013.07 1014.57 1015.75 1016.87 1018.16 1019.05 1019.72 1020.69 1022.51 1022.48 1022.72 1023.65 1023.77
1014.22 1013.94 1013.77 1013.44 1012.91 1012.33 1011.64 1010.93 1010.53 1010.35 1009.94 1009.58 1009.36 1008.76 1008.16 1007.76 1007.59 1007.25 1007.08 1006.93 1006.71 1006.83 1006.89 1008.30 1008.62 1009.70 1010.93 1011.52 1012.77 1013.14 1013.24 1014.35 1015.45 1016.48 1017.63 1018.83 1019.68 1020.99 1022.64 1023.00 1023.05 1024.07 1024.12
1014.24 1013.90 1013.47 1013.09 1012.66 1012.22 1011.63 1010.82 1010.12 1009.69 1009.21 1008.62 1008.23 1007.75 1007.26 1007.08 1006.52 1006.13 1005.84 1005.49 1005.38 1005.48 1005.69 1006.46 1007.78 1008.98 1009.73 1010.44 1011.26 1012.84 1013.53 1014.03 1015.48 1016.51 1017.42 1018.56 1019.50 1020.84 1022.48 1023.85 1023.73 1024.52 1024.94
1013.87 1013.57 1013.14 1012.60 1012.11 1011.60 1011.03 1010.44 1009.69 1008.99 1008.61 1007.96 1007.68 1007.29 1006.83 1006.48 1005.82 1005.54 1005.39 1005.12 1004.08 1003.98 1004.20 1004.95 1006.91 1007.96 1009.37 1010.60 1011.66 1012.70 1013.62 1014.81 1015.75 1016.47 1017.43 1018.81 1019.72 1021.00 1022.54 1023.96 1024.33 1024.82 1025.36
1013.68 1013.13 1012.70 1012.24 1011.72 1010.93 1010.49 1010.08 1009.61 1008.81 1008.26 1007.63 1007.07 1006.57 1005.98 1005.43 1004.70 1004.27 1003.97 1003.75 1003.87 1003.52 1002.53 1003.53 1005.37 1007.20 1008.71 1010.14 1011.20 1012.10 1014.18 1014.99 1015.64 1017.04 1018.18 1019.01 1019.93 1021.50 1023.06 1023.93 1024.87 1025.28 1025.23
1013.41 1012.93 1012.41 1011.90 1011.30 1010.65 1010.06 1009.68 1009.29 1008.46 1007.65 1006.82 1006.10 1005.45 1004.60 1003.81 1003.19 1002.83 1002.51 1002.25 1002.41 1002.65 1002.62 1003.13 1005.61 1006.13 1008.02 1009.65 1010.48 1012.22 1013.45 1014.68 1016.09 1017.00 1018.41 1019.35 1020.00 1021.58 1023.41 1024.41 1024.96 1025.11 1025.62
1012.87 1012.55 1012.01 1011.39 1010.76 1010.37 1010.02 1009.38 1008.74 1007.70 1006.90 1006.12 1005.22 1004.18 1003.13 1002.17 1001.26 1000.71 1000.60 1000.80 1000.92 1001.15 1001.15 1001.87 1003.61 1004.96 1006.94 1008.56 1010.05 1011.04 1012.56 1013.94 1016.21 1017.38 1017.96 1019.39 1020.15 1022.15 1023.46 1024.41 1024.60 1024.94 1025.88
1012.59 1012.12 1011.30 1011.02 1010.46 1009.95 1009.38 1008.40 1008.07 1007.44 1006.36 1005.39 1004.46 1003.27 1002.00 1000.82 999.72 998.68 998.07 998.37 999.12 999.94 1000.49 1000.48 1001.88 1003.69 1005.69 1006.96 1009.00 1010.40 1011.23 1011.89 1013.67 1015.91 1017.05 1019.27 1020.85 1021.75 1023.82 1024.55 1025.02 1025.20 1025.83
1012.07 1011.63 1011.22 1011.03 1010.34 1010.06 1009.31 1008.08 1007.64 1006.80 1005.69 1004.69 1003.74 1002.64 1001.40 999.60 997.96 996.95 996.03 995.82 996.71 998.29 999.91 1000.02 1001.29 1002.75 1004.56 1005.86 1006.94 1007.43 1009.65 1012.32 1014.66 1016.37 1017.15 1019.30 1020.86 1022.16 1023.81 1024.52 1025.27 1025.46 1026.02
1011.55 1011.15 1010.86 1010.80 1010.36 1009.84 1009.26 1008.14 1007.33 1006.22 1005.20 1004.20 1003.37 1002.27 1000.79 999.20 997.54 995.16 994.73 994.88 995.98 997.69 999.25 1000.43 1001.42 1002.35 1004.11 1005.68 1007.20 1008.98 1010.69 1011.94 1014.33 1016.30 1017.98 1018.62 1020.52 1022.08 1023.93 1024.94 1025.07 1025.83 1026.09
1011.46 1011.03 1010.64 1010.37 1010.45 1009.80 1009.23 1008.21 1006.90 1006.13 1005.09 1004.32 1003.45 1002.31 1001.13 999.90 998.48 997.11 996.42 996.38 997.68 998.96 1000.17 1001.85 1003.15 1004.40 1005.18 1006.59 1007.78 1008.10 1009.09 1011.02 1013.19 1016.02 1017.60 1018.31 1019.97 1021.82 1024.01 1024.51 1025.03 1025.82 1025.84
Wind_Speed
4 5 5 5 5 6 6 6 6 6 6 7 7 9 10 11 11 7 6 11 11 13 15 15 14 13 12 12 14 12 11 11 12 13 13 12 11 11 11 12 11 11 11
5 5 6 7 7 7 8 7 7 7 7 6 8 9 11 11 12 12 9 10 11 10 13 16 16 16 16 15 13 12 13 14 14 14 14 12 12 12 10 11 11 11 12
6 9 6 6 8 7 8 7 7 7 7 7 9 9 9 12 12 14 12 11 12 13 12 14 17 18 19 19 18 18 17 14 13 14 14 15 13 12 11 10 10 11 12
7 6 7 6 5 6 7 7 7 8 8 8 9 9 9 11 14 15 13 11 11 11 13 16 17 16 18 20 20 19 18 18 15 15 15 14 14 13 12 11 9 11 10
7 6 6 7 6 5 5 6 5 7 6 7 9 9 10 11 13 12 16 16 16 14 11 19 20 19 18 18 19 20 20 20 19 18 17 16 15 14 12 14 11 11 11
5 6 5 6 4 5 6 6 8 7 8 9 9 8 9 8 8 11 15 15 16 14 14 15 13 13 21 21 21 21 22 22 23 21 20 19 17 15 14 13 13 11 11
2 1 1 3 4 4 6 6 5 7 5 4 3 2 6 7 11 9 11 13 17 18 16 15 11 10 12 23 23 23 23 23 23 24 23 21 20 18 15 14 13 12 12
5 4 3 4 5 5 7 8 8 7 6 5 3 0 4 3 6 11 10 10 14 14 14 15 15 14 15 12 17 26 26 24 24 24 23 24 23 21 18 16 15 13 12
4 5 5 5 7 7 7 9 10 11 9 5 10 4 3 6 3 5 14 11 12 10 11 12 15 17 16 13 15 17 23 24 25 24 24 25 23 25 21 19 15 15 15
6 7 8 9 9 8 10 10 10 11 11 10 6 10 11 5 7 3 5 12 14 16 16 12 14 15 15 11 15 13 14 17 23 24 23 24 25 25 23 23 19 16 15
6 8 9 10 10 8 11 13 13 13 11 11 11 9 11 10 9 7 9 5 10 12 13 14 17 15 16 15 12 13 10 12 16 21 23 22 24 24 25 23 20 19 17
6 9 10 10 11 11 12 12 13 15 14 14 12 12 11 8 8 8 9 9 8 9 13 13 14 14 15 15 20 24 21 18 16 19 21 22 22 22 23 24 23 21 20
7 9 11 11 11 13 14 14 14 15 15 14 16 12 11 12 11 12 10 13 10 4 5 10 10 9 11 15 16 25 26 23 22 20 21 21 21 21 21 23 23 20 21
9 12 12 13 15 16 15 15 12 12 14 13 18 14 10 11 11 13 13 13 13 10 3 4 7 9 10 11 17 29 18 25 25 21 21 21 19 19 18 20 22 20 19
10 12 14 14 14 13 13 15 12 14 13 13 13 15 15 14 13 13 13 14 14 13 11 7 4 9 9 9 14 16 16 23 23 23 20 21 20 18 17 18 19 19 19
12 13 13 14 15 15 15 13 12 13 14 12 11 15 17 15 15 11 12 15 15 16 15 11 9 9 12 7 14 16 17 22 24 23 21 20 19 19 16 17 19 18 18
13 14 13 13 13 15 16 13 13 14 15 15 16 17 19 17 14 13 13 16 16 16 17 7 11 12 16 15 11 10 16 15 14 26 23 22 21 19 15 15 17 17 18
12 13 13 14 13 13 16 15 16 15 17 17 17 18 18 13 17 14 14 18 17 17 16 14 12 11 14 18 18 17 11 11 14 25 26 24 22 20 16 13 15 16 16
14 14 14 14 14 13 14 15 15 13 14 13 14 17 19 18 18 15 17 17 12 17 17 11 7 9 11 13 13 12 12 12 11 26 26 25 24 23 20 18 18 18 17
14 13 12 12 13 14 13 14 14 13 13 13 15 16 18 20 20 19 17 18 16 15 14 9 13 13 13 12 13 15 11 10 12 12 18 19 24 24 20 19 17 18 18
12 11 12 11 13 12 8 12 13 14 14 15 16 17 18 21 29 26 14 16 17 15 12 13 10 12 13 14 18 12 13 11 11 11 11 11 12 11 11 17 17 19 18
10 11 11 11 12 8 16 19 17 14 15 15 16 17 17 24 25 31 32 32 21 16 17 12 12 16 17 16 14 16 16 16 12 7 14 11 11 11 9 9 17 19 18
10 10 10 11 11 12 18 20 21 13 14 14 15 14 15 14 21 19 26 34 32 30 19 20 19 20 19 21 18 20 20 20 13 13 16 12 10 11 8 9 18 18 17
8 7 8 9 9 9 19 20 21 13 12 13 12 14 15 18 17 17 18 19 23 20 17 15 21 22 22 23 25 22 21 15 14 12 13 12 11 10 9 8 18 17 17
6 7 7 9 9 10 19 20 16 10 10 11 10 12 14 10 19 11 5 4 12 9 18 8 18 25 27 27 21 16 14 18 16 13 7 13 10 10 6 7 9 17 17
7 6 6 6 10 10 15 19 15 7 8 8 10 11 19 15 21 20 10 15 15 14 17 17 15 17 19 19 26 20 20 18 17 12 8 7 13 9 6 4 7 9 9
Wind_Direction
196 207 211 207 207 199 207 212 226 234 237 227 217 221 221 218 218 217 223 206 212 210 204 208 207 201 186 180 174 175 171 171 168 168 164 158 149 149 141 135 132 119 110
178 218 219 218 224 214 212 219 222 229 239 232 235 231 230 224 217 214 211 206 217 223 216 211 213 207 202 193 180 181 188 185 176 167 165 153 153 157 144 137 135 126 122
208 225 227 224 232 232 240 231 228 233 242 240 244 233 231 230 225 217 217 216 201 204 208 211 203 201 202 191 185 188 183 187 179 175 159 167 156 152 148 147 135 128 123
219 226 244 248 247 242 244 242 235 238 240 239 242 234 230 225 225 222 219 217 216 211 200 200 201 204 195 195 191 192 182 174 187 172 170 163 156 154 152 145 144 133 125
219 221 237 258 243 226 222 228 223 221 226 232 242 240 235 233 227 220 218 216 215 210 205 196 184 188 199 202 200 200 191 180 178 176 173 165 158 155 157 147 148 139 136
216 231 240 251 236 239 240 235 244 231 242 249 249 233 238 239 239 229 222 216 217 213 206 202 190 189 185 192 199 203 196 189 180 180 174 166 162 160 160 154 144 149 142
43 253 245 285 312 274 279 276 263 270 254 243 264 265 258 238 227 235 228 232 217 210 208 203 194 192 192 189 189 203 204 198 191 181 175 169 163 161 156 154 150 145 143
38 16 350 331 320 308 299 292 282 275 267 174 212 279 288 241 233 231 214 216 221 216 210 204 195 201 202 197 191 196 203 201 195 187 181 169 164 159 158 156 156 150 148
11 354 333 310 298 291 283 281 273 264 267 236 207 213 239 235 185 186 221 224 215 210 210 208 203 194 199 195 186 197 208 191 195 192 187 170 171 159 161 160 153 157 152
337 326 318 310 299 291 281 274 269 261 256 252 221 221 231 247 252 269 234 216 212 206 209 199 207 197 189 186 184 188 213 203 184 193 189 179 174 164 163 151 165 161 153
317 313 312 306 297 290 282 278 273 259 251 251 247 234 235 231 227 237 260 228 223 218 209 197 188 191 189 179 169 171 177 200 185 184 184 191 177 171 162 158 163 161 158
304 296 297 290 281 278 278 279 277 269 264 260 253 247 245 236 229 235 251 255 242 222 212 213 207 197 185 180 176 171 167 166 171 177 183 189 181 175 170 159 161 165 153
284 285 296 299 300 296 289 285 281 274 268 260 250 241 238 243 249 248 240 254 246 208 251 205 202 199 200 182 177 167 167 168 161 174 178 185 178 176 177 161 159 167 156
293 300 301 302 296 292 288 286 280 270 267 262 256 250 250 252 250 253 254 251 252 233 155 225 235 193 191 192 179 167 169 172 162 168 177 172 170 178 173 168 159 163 155
300 300 296 293 284 285 279 281 275 269 264 261 262 262 259 255 251 251 253 250 245 242 202 182 177 194 190 188 182 170 163 170 161 159 167 163 160 168 172 165 156 156 151
302 301 299 294 291 288 278 273 270 272 275 275 270 265 262 259 255 246 247 251 244 237 247 193 192 173 171 186 196 168 159 160 159 155 152 150 147 149 168 155 150 153 148
311 308 303 294 286 284 283 275 270 271 264 263 262 261 265 260 255 251 247 250 248 236 230 190 200 182 177 168 171 178 158 158 153 146 143 141 138 140 154 149 148 154 149
302 300 299 297 294 299 294 289 283 276 273 269 267 265 264 262 260 257 248 240 248 239 230 205 179 170 184 174 166 166 167 153 155 150 140 138 135 132 142 148 146 146 147
307 306 302 298 294 288 288 283 276 284 284 282 281 276 270 264 260 256 251 261 250 234 224 206 164 168 172 173 164 158 153 152 150 145 139 140 137 139 146 152 152 149 148
310 303 296 295 294 298 298 299 291 290 287 283 282 278 273 265 261 255 246 240 252 250 222 215 172 162 166 164 159 151 150 155 147 142 143 141 140 141 149 152 158 160 149
304 303 301 303 307 307 301 308 301 296 291 287 281 274 267 261 257 252 249 239 230 240 237 152 166 157 162 159 170 163 145 140 134 145 137 138 135 134 154 163 168 161 156
307 310 312 320 319 316 311 316 313 308 298 285 282 278 276 274 266 253 243 238 231 226 213 173 164 167 170 168 165 163 152 149 145 171 139 136 134 143 148 168 161 155 164
317 320 327 326 321 322 319 322 319 303 296 287 283 283 282 274 269 259 244 230 225 225 241 176 171 177 170 170 161 164 169 164 152 151 137 131 142 126 144 163 160 157 160
321 327 330 324 319 318 321 326 317 300 295 289 290 290 286 284 282 270 246 227 211 209 197 185 171 169 174 169 172 169 157 136 125 134 135 133 138 124 144 153 163 158 163
327 335 331 317 322 321 330 333 324 310 307 312 312 310 325 330 338 323 71 110 173 160 169 180 170 163 163 158 151 139 147 140 139 140 151 128 134 115 137 156 162 168 162
330 332 321 321 323 323 329 343 353 324 331 335 334 343 6 15 23 29 69 103 99 109 111 102 103 107 123 137 153 158 153 144 140 132 152 114 136 127 146 163 163 171 160